Wind_Speed
8 8 8 8 8 8 8 7 7 6 6 5 5 5 5 6 7 8 9 11 12 13 15 17 18 18 19 19 18 17 16 17 17 17 18 18 18 19 20 20 19 17 16 14 12 8 5 4 3 3 3 4 3 2 6 4 4 4 5 6 6 7 4 3 9 13 15 18 21 21 20 21 22 22 20 19 18 17 17 16 15 17 18 18 17 19 19 18
8 7 7 7 8 8 8 8 7 7 6 5 5 4 5 5 6 6 7 9 10 12 13 14 17 18 19 18 18 18 17 17 17 18 19 17 17 19 20 20 19 18 17 14 12 8 6 5 4 4 1 2 3 3 5 3 3 3 5 7 5 6 4 3 10 14 15 18 21 20 21 21 22 21 20 20 20 18 17 17 20 21 20 18 18 19 18 18
7 7 7 7 7 7 7 7 7 7 6 5 4 3 4 5 5 6 6 7 8 10 12 13 14 17 18 18 18 17 17 16 17 20 19 18 18 18 19 19 20 19 18 15 12 10 8 7 7 5 3 3 5 5 5 4 3 2 5 6 6 7 5 2 10 15 16 19 20 20 22 22 22 21 19 20 20 18 17 17 19 20 20 20 19 19 19 19
7 7 7 8 8 7 7 7 7 6 6 5 4 3 3 4 5 6 6 7 7 8 10 12 12 15 16 18 17 16 17 14 17 21 18 19 19 17 18 19 20 19 18 16 13 12 11 10 9 7 5 5 8 8 6 6 5 3 5 6 7 8 5 2 10 16 17 19 21 21 21 22 22 21 19 19 20 18 17 15 14 16 20 22 20 19 20 19
7 7 8 8 8 8 8 7 7 6 6 6 5 5 5 5 6 6 7 7 8 8 8 10 11 13 14 16 15 16 14 8 17 22 16 19 19 16 17 18 19 19 18 16 14 14 13 11 10 8 7 7 10 8 6 7 6 5 6 6 5 8 6 4 11 18 19 19 21 20 20 21 21 20 19 19 19 17 17 16 12 14 19 21 20 19 20 19
8 8 8 8 8 8 8 8 8 7 7 7 6 7 6 7 8 8 8 8 8 9 8 8 10 12 12 14 13 14 13 8 19 23 16 19 19 17 18 18 19 19 18 17 16 16 14 13 11 9 7 8 10 8 6 6 6 5 5 6 9 10 6 7 13 19 20 19 22 21 19 20 18 19 19 17 16 16 18 18 14 15 18 21 19 18 20 20
8 9 9 9 9 9 9 9 9 8 8 7 7 8 8 9 9 9 10 9 9 9 9 9 9 10 11 12 12 13 12 13 21 21 16 18 18 17 18 18 18 19 19 18 17 16 14 13 12 9 8 8 10 9 8 7 5 5 5 8 12 9 5 8 14 20 20 19 21 20 18 17 17 18 18 16 16 17 18 18 16 17 20 21 19 18 19 19
8 9 9 9 9 9 9 10 9 9 8 8 8 8 9 9 10 10 10 9 9 9 9 9 9 9 10 9 10 8 8 17 23 19 16 16 17 19 19 18 17 18 19 18 18 16 14 14 12 10 8 9 9 8 9 7 5 6 9 12 12 7 5 9 16 22 20 19 20 19 17 17 18 19 18 18 18 17 18 19 18 19 21 21 20 20 20 20
8 9 9 10 9 10 10 10 10 10 9 9 8 8 9 9 10 10 9 10 10 9 9 10 10 9 8 8 7 4 9 21 21 19 18 15 16 19 19 18 17 17 18 18 18 17 15 13 12 10 9 9 9 9 7 4 3 6 12 13 8 3 7 15 22 23 19 21 20 19 19 18 19 19 18 18 18 17 18 19 20 20 21 21 20 20 21 20
8 8 9 9 9 10 10 11 10 10 10 9 9 9 9 9 9 10 10 10 10 10 10 9 10 10 8 7 4 3 14 22 17 19 20 16 16 18 19 18 17 17 17 18 17 17 15 12 11 9 9 9 8 9 8 4 3 6 10 7 0 5 11 21 26 23 22 23 21 20 20 19 18 17 19 20 19 19 19 21 22 21 22 22 20 20 21 20
8 8 8 9 9 10 10 11 11 11 10 9 9 9 9 9 10 10 11 11 11 12 11 10 10 9 8 6 5 5 18 19 16 20 19 17 15 16 19 19 18 18 17 17 17 16 15 13 10 9 9 8 7 8 10 9 5 7 7 1 4 11 16 24 27 24 24 25 23 22 20 18 16 16 19 22 21 19 20 22 23 22 22 22 20 20 21 20
8 8 7 8 9 9 10 11 11 11 11 10 10 10 10 10 10 11 11 12 12 12 12 11 10 9 9 6 7 12 17 15 15 17 17 17 15 15 19 19 18 19 17 15 15 15 16 16 15 13 9 8 8 6 10 12 6 6 5 1 5 14 20 24 24 23 23 24 24 23 18 15 13 16 21 22 20 19 21 23 24 23 23 22 20 20 21 21
8 8 7 8 8 9 10 11 12 12 11 11 10 10 10 10 11 11 12 12 13 12 12 10 9 8 6 5 10 13 13 12 13 14 16 17 14 15 18 19 20 20 19 15 14 16 17 19 20 16 10 9 8 7 10 10 7 6 4 1 6 15 20 22 22 22 23 23 25 23 17 13 13 17 21 21 20 20 23 25 25 24 23 22 20 20 20 21
8 7 7 7 8 9 10 11 11 11 11 11 11 11 10 10 11 11 11 12 12 11 11 9 7 7 5 6 10 10 10 12 12 12 14 15 14 15 17 19 20 21 21 18 14 16 18 19 21 18 11 11 9 9 9 7 7 8 5 3 10 13 17 21 20 21 23 22 24 21 17 14 14 19 21 21 20 20 24 26 25 24 24 22 20 20 20 20
7 7 7 7 7 8 9 10 11 11 11 11 11 11 10 10 10 10 10 11 11 10 9 7 5 4 2 5 10 8 8 8 9 12 12 12 12 13 16 18 19 20 22 20 17 19 20 18 21 19 11 12 10 8 9 9 10 10 7 6 10 12 18 23 20 20 23 23 22 19 17 17 16 20 22 21 20 21 24 26 25 24 23 22 20 19 19 20
6 6 7 7 7 8 9 10 10 11 11 11 11 10 10 10 10 11 11 11 10 8 7 7 4 4 7 2 9 5 4 5 8 12 11 9 8 11 15 17 18 18 20 21 20 20 20 20 22 18 11 12 12 10 10 11 10 9 8 6 9 15 20 23 21 18 20 22 21 18 17 18 19 22 23 21 21 21 24 26 25 23 23 22 20 19 19 20
5 5 6 6 7 7 8 9 10 11 11 11 10 9 9 10 12 13 13 11 8 9 9 8 8 6 4 3 5 1 3 6 8 9 11 10 9 10 13 14 16 17 17 20 19 16 17 21 21 16 14 14 14 13 13 13 11 9 9 7 10 18 20 22 21 16 17 22 20 17 17 16 20 24 23 22 22 22 23 25 25 23 23 23 21 20 19 20
5 5 5 6 7 7 8 9 9 10 10 9 9 8 9 11 15 15 12 8 9 14 12 9 12 7 2 4 2 2 4 6 7 9 10 10 10 9 10 12 14 15 15 16 16 15 15 18 17 14 16 17 16 16 15 13 9 8 10 9 10 15 17 20 22 18 19 22 19 17 17 16 19 23 24 23 22 22 23 24 25 24 23 23 21 20 19 20
5 4 5 6 7 7 8 8 9 9 8 8 7 7 9 12 16 14 10 10 10 12 9 6 9 6 3 5 1 3 3 5 6 8 9 9 9 8 8 11 13 13 12 13 14 14 14 15 15 16 18 18 18 18 15 11 8 7 10 11 9 12 14 16 20 20 21 23 20 17 18 18 19 23 24 24 22 21 21 23 25 25 24 24 22 21 20 20
5 4 4 5 6 7 8 8 9 8 6 6 5 5 9 12 12 10 10 13 10 7 6 5 5 2 1 3 1 2 3 4 5 6 9 10 8 7 7 8 10 12 12 12 13 13 15 16 17 19 19 18 18 18 14 10 8 7 8 10 10 11 13 15 17 20 21 21 20 17 18 17 17 21 22 24 24 20 21 23 25 25 25 25 24 22 22 20
5 4 4 5 6 6 7 8 8 6 4 4 4 6 9 8 6 6 8 9 7 8 7 6 6 3 2 2 2 3 2 4 5 7 8 9 9 8 7 9 11 12 13 13 11 13 16 18 19 19 18 17 17 18 13 7 6 6 6 10 14 12 13 13 15 20 20 18 19 18 18 16 16 19 21 24 25 22 22 24 24 25 25 26 25 23 23 21
5 4 4 4 5 6 6 7 6 5 4 4 5 8 7 5 8 10 11 7 4 7 7 7 9 5 5 6 3 5 8 6 6 8 7 8 11 9 8 10 12 12 14 14 12 14 17 19 18 17 18 16 15 18 14 9 9 8 9 9 13 15 13 11 13 19 19 15 19 20 18 17 17 17 19 23 25 22 22 24 25 25 24 25 26 25 24 23
5 3 3 4 5 5 6 6 6 4 4 5 7 8 4 4 8 9 9 5 2 5 6 5 7 4 5 9 5 7 10 8 8 8 7 9 11 10 8 11 13 12 14 16 15 15 17 18 17 16 17 15 14 18 14 12 12 9 10 9 6 13 11 11 15 17 15 14 18 20 17 18 19 19 20 21 24 24 22 23 24 25 24 24 26 25 24 24
4 3 3 4 4 5 5 5 5 4 5 6 7 8 5 5 6 7 7 3 2 3 5 4 6 5 5 5 4 10 7 7 8 9 7 10 10 8 9 11 13 13 13 16 16 15 14 14 16 17 16 13 14 16 14 14 13 8 7 9 4 8 8 11 17 16 14 12 16 20 16 16 20 22 22 21 22 24 24 24 25 26 25 23 25 24 22 23
5 4 3 3 4 5 4 5 5 5 6 6 5 5 5 5 4 4 4 1 5 3 5 4 5 4 7 7 7 6 3 5 7 10 7 10 9 7 8 11 13 13 13 15 16 15 14 12 14 17 18 16 15 16 15 14 14 9 6 4 6 5 6 11 15 15 14 10 15 21 14 13 19 21 24 24 23 24 25 26 27 27 27 25 25 24 23 22
5 4 3 3 4 4 4 4 4 6 6 4 2 1 3 5 2 2 4 7 5 7 4 3 5 2 6 6 5 3 5 9 7 8 7 9 10 6 7 11 12 11 11 15 16 15 14 12 12 14 15 16 17 17 15 13 14 10 6 3 3 6 6 8 10 10 11 8 15 19 10 8 16 20 23 25 26 26 26 27 29 29 29 28 26 25 24 24
5 4 3 3 4 3 3 3 5 7 4 2 2 1 3 4 2 3 5 8 3 10 4 3 5 2 4 2 1 3 4 10 7 6 7 10 9 5 7 11 11 9 8 13 15 15 13 9 12 13 12 16 18 18 15 14 13 7 6 5 2 5 6 7 8 7 6 5 12 18 12 8 12 19 22 24 25 26 27 27 28 30 30 28 27 26 25 25
5 4 3 3 3 3 3 3 5 7 3 3 3 1 1 3 4 3 5 4 6 8 4 2 3 2 2 0 1 2 1 5 7 7 6 8 9 6 7 9 11 10 9 13 14 13 12 10 11 14 14 16 18 18 14 13 11 4 4 7 4 5 7 7 9 9 7 3 8 20 20 9 7 15 19 22 24 24 27 28 28 30 32 30 28 27 26 26
5 3 2 3 3 3 2 3 5 5 4 3 3 1 1 2 4 4 7 3 6 4 4 5 4 3 1 1 0 1 3 3 4 6 7 7 9 11 9 6 9 10 10 16 15 9 10 13 13 14 18 17 17 18 13 12 12 6 5 7 6 6 7 8 9 9 9 7 10 22 24 11 3 12 20 21 23 24 26 28 28 29 32 32 31 29 27 27
4 3 2 2 2 2 3 5 6 5 5 4 3 2 0 2 4 8 6 3 5 4 5 5 5 3 2 5 3 1 4 4 2 5 6 6 8 12 11 6 7 9 9 17 19 9 6 11 11 13 18 15 15 17 13 10 10 7 8 8 7 8 7 8 10 8 7 8 10 17 21 13 5 13 23 20 18 21 24 27 29 29 31 33 33 31 29 28
3 2 1 2 2 2 4 6 7 6 6 5 4 2 1 3 9 8 4 3 2 5 4 3 4 3 4 5 4 2 4 5 3 5 6 6 9 10 11 10 8 8 9 15 18 11 7 9 9 12 15 13 15 17 13 10 10 10 10 9 9 8 6 7 7 6 5 5 8 11 17 15 8 13 20 15 10 16 21 24 27 30 32 34 34 32 30 29
2 1 1 1 2 2 5 7 7 6 5 4 4 4 1 6 8 3 7 3 4 3 4 3 5 4 2 3 2 2 3 4 4 7 7 8 11 10 11 12 9 10 12 14 17 13 10 12 11 13 14 12 16 19 14 11 14 14 12 13 11 7 6 7 4 4 7 6 5 6 11 12 8 10 15 13 11 15 18 18 20 25 30 34 36 34 32 30
1 0 1 2 2 3 5 7 6 5 3 2 4 2 5 8 4 5 6 6 2 4 4 3 4 3 1 3 2 2 2 3 3 7 8 8 10 12 13 11 9 11 12 13 17 14 10 12 14 15 16 14 15 20 17 13 16 18 17 16 13 8 6 7 4 5 8 6 6 7 7 7 10 14 14 16 15 14 16 15 14 17 23 32 36 34 32 31
0 1 2 2 3 4 5 6 5 3 2 2 2 3 8 6 5 4 4 5 5 3 2 2 4 2 3 3 1 2 3 2 3 5 7 9 9 10 12 10 9 10 9 11 17 17 12 12 16 18 18 17 18 19 16 13 16 19 18 17 15 13 10 6 4 3 6 5 6 8 6 4 8 13 14 15 14 12 13 13 12 13 17 26 33 33 31 31
1 2 3 3 3 4 5 5 4 2 2 3 1 7 7 3 3 4 4 4 4 5 3 3 5 4 3 3 1 2 2 2 4 3 6 9 9 8 8 9 9 10 9 9 13 18 15 13 18 21 17 18 22 20 15 14 16 18 18 18 17 15 13 10 7 5 7 8 6 8 6 0 7 11 10 11 12 11 12 13 13 13 14 21 29 33 33 32
2 3 3 2 4 4 4 4 4 3 4 2 5 8 3 3 3 5 6 5 4 5 5 5 5 3 3 3 1 1 1 2 3 4 5 7 8 7 7 7 7 8 9 7 8 14 15 11 15 21 16 17 22 21 17 15 15 15 18 20 16 11 12 13 12 11 11 9 5 8 7 0 7 7 7 10 11 10 11 14 14 13 14 19 27 32 33 32
2 3 2 2 3 3 4 3 3 6 6 2 6 4 3 1 3 4 5 6 5 4 5 6 4 3 4 3 1 2 2 2 1 2 4 4 5 4 5 6 4 5 8 7 7 11 12 10 13 18 15 15 18 20 20 17 14 13 18 20 15 10 12 11 9 9 8 6 5 7 9 9 9 8 9 10 10 10 11 13 13 12 14 17 24 32 33 33
1 3 2 3 3 3 2 2 4 8 4 5 6 3 2 2 2 4 4 5 4 4 6 5 3 3 4 3 1 1 2 1 0 1 3 3 3 2 4 6 4 5 7 8 9 9 11 12 12 17 15 14 16 19 21 21 18 13 13 17 19 15 13 12 8 6 7 7 5 5 12 14 10 12 12 9 10 12 12 12 10 9 13 16 22 31 33 33
3 5 3 5 3 2 2 2 6 5 2 7 4 2 3 1 2 3 3 4 3 4 6 4 2 4 5 3 2 0 1 1 1 2 3 3 3 3 3 4 3 3 5 9 11 8 9 12 10 15 15 16 18 20 22 23 22 16 10 13 21 19 14 14 12 9 6 4 3 5 8 4 5 11 11 8 11 11 11 12 8 6 11 14 18 26 31 33
6 6 8 12 7 2 1 5 6 2 6 5 2 1 2 0 1 1 3 4 3 3 5 4 3 4 4 3 3 1 1 1 1 2 2 2 3 4 3 2 3 3 4 7 10 8 9 12 9 9 13 17 20 22 24 23 24 23 16 14 18 19 17 15 15 15 11 4 3 5 4 0 6 9 9 9 11 9 9 12 9 7 10 12 13 21 28 33
4 3 11 15 11 3 3 4 2 4 6 3 1 2 3 3 1 2 3 3 3 3 4 4 4 4 4 5 2 1 1 1 1 1 1 2 2 3 4 4 3 4 6 7 9 8 9 12 11 9 13 17 19 20 22 21 21 23 23 19 18 19 19 15 13 17 18 13 11 8 3 4 8 9 7 7 9 7 9 12 10 8 10 11 11 16 25 31
6 6 10 12 10 2 4 2 3 3 4 3 4 2 2 3 2 3 3 3 2 3 3 3 3 4 5 5 4 2 3 2 2 1 1 2 1 1 4 6 4 4 6 8 8 7 8 12 13 12 12 14 15 17 20 22 20 20 23 23 21 20 20 18 13 14 18 17 16 14 7 5 9 10 7 5 7 7 9 12 10 8 9 12 11 13 21 27
4 7 11 15 12 3 4 6 5 3 3 2 5 4 1 2 2 3 2 3 3 3 3 4 4 4 4 4 5 4 4 3 2 2 1 2 2 2 3 5 5 5 5 7 6 6 8 12 14 15 13 11 13 15 18 21 20 19 22 23 23 22 20 21 18 15 17 16 13 13 8 6 9 9 6 4 6 8 9 11 10 8 10 13 12 12 16 22
5 8 10 15 14 7 6 9 6 5 4 2 4 5 3 2 1 2 2 2 2 3 4 3 3 3 3 3 5 4 3 4 2 3 3 3 3 4 4 5 6 4 5 6 5 5 7 10 13 16 12 8 11 14 16 20 20 19 20 22 24 23 21 20 20 17 18 18 16 15 8 3 5 7 7 5 6 8 9 9 9 9 11 13 13 14 15 20
8 8 6 9 10 9 9 10 7 4 5 4 5 6 4 4 3 1 1 2 2 3 4 3 2 4 4 3 5 4 4 6 5 3 4 4 3 3 4 5 5 4 7 9 7 5 7 9 11 14 13 9 9 10 12 17 21 20 18 19 23 25 23 20 19 19 19 18 18 17 8 3 3 5 6 7 7 10 11 9 9 10 11 12 13 15 16 20
7 9 9 8 9 10 10 9 6 5 4 6 7 6 5 5 3 2 1 2 3 3 4 4 3 4 5 4 5 5 4 6 6 4 5 6 5 4 5 5 4 6 9 11 10 8 9 10 10 12 14 12 8 9 11 14 20 21 20 20 22 24 23 19 18 19 17 14 15 16 10 6 5 6 5 7 8 10 11 10 11 11 9 9 13 16 17 21
8 9 9 8 9 10 10 9 9 8 4 5 8 7 5 4 3 2 2 2 3 3 4 5 3 4 4 4 5 5 4 4 5 5 6 5 4 4 6 5 4 8 11 10 9 8 9 10 9 10 13 14 10 10 12 14 18 22 23 22 19 18 19 19 18 14 9 10 11 8 7 9 8 6 5 4 6 8 9 11 12 12 9 7 13 17 17 19
11 8 7 10 10 8 9 10 10 9 6 5 6 6 6 6 4 4 3 2 2 2 4 5 4 4 4 4 5 5 4 5 5 5 5 5 4 5 6 5 5 7 9 8 8 8 8 9 9 9 11 15 15 12 13 16 18 19 20 19 17 18 19 19 21 16 9 11 10 6 2 8 8 8 8 5 5 7 9 12 12 11 8 7 13 18 19 19
10 9 8 12 12 7 6 8 8 8 8 8 7 6 7 7 5 5 4 2 2 2 3 4 4 5 4 5 6 6 6 6 6 5 6 5 4 4 5 5 5 5 5 6 7 8 8 8 9 10 9 12 15 13 13 16 16 13 12 13 15 19 19 18 20 17 11 11 9 5 2 6 6 7 9 9 8 7 9 13 13 12 9 9 12 17 20 22
12 12 11 12 14 11 9 8 8 8 9 10 9 7 7 7 5 5 4 3 3 3 4 4 4 5 5 5 6 6 5 6 5 3 5 6 5 5 3 3 4 5 6 6 7 7 8 8 8 9 9 10 14 14 13 14 13 9 8 9 12 15 16 14 13 11 9 9 10 8 6 5 7 8 9 8 7 6 8 13 15 15 14 13 14 17 21 25
15 15 15 14 12 12 12 10 10 10 10 10 9 8 8 7 6 5 4 4 3 2 3 4 4 4 4 5 6 6 4 6 6 4 5 6 4 3 3 2 3 5 6 5 6 7 8 7 6 7 9 10 13 15 13 13 14 11 5 3 6 10 11 9 7 5 6 9 11 9 6 6 9 12 10 5 3 4 7 13 15 16 17 17 18 21 24 26
16 16 18 17 12 12 13 12 11 12 12 11 10 8 7 7 6 6 5 5 4 4 4 3 4 5 4 3 5 6 5 5 6 6 6 6 4 3 3 3 4 4 5 5 6 8 9 8 6 7 9 10 10 12 12 15 15 9 4 4 1 6 9 8 5 3 3 7 11 10 8 7 9 11 7 4 3 2 4 10 14 15 16 18 21 24 23 19
Wind_Direction
11 8 6 6 5 8 9 12 15 13 12 1 351 343 320 303 292 285 279 273 269 262 254 251 250 249 248 246 245 244 242 237 231 227 225 225 225 225 224 222 220 220 222 222 225 224 219 208 189 234 264 279 291 247 251 281 286 300 338 323 346 1 14 132 163 155 155 154 152 151 152 154 148 148 149 144 142 143 141 134 123 120 141 157 148 143 144 143
15 12 8 5 2 1 0 2 5 9 12 12 10 354 335 327 315 308 294 284 277 270 264 256 252 250 249 246 244 243 244 241 237 233 227 223 223 225 224 221 220 219 222 222 223 216 200 186 186 218 224 261 267 246 252 276 293 300 306 304 351 356 5 119 167 162 159 155 152 152 153 152 147 148 147 142 140 142 143 133 127 137 151 152 143 143 143 140
24 17 10 7 3 358 353 349 349 352 356 0 2 352 346 337 332 330 317 305 288 278 271 263 256 252 250 247 244 243 242 245 246 239 229 223 221 223 224 221 220 219 220 220 217 208 195 188 189 196 179 224 238 242 260 273 291 291 271 300 1 347 347 122 173 170 164 159 154 150 150 151 148 148 144 140 139 142 146 139 139 151 151 144 144 144 140 141
36 24 14 12 8 2 356 348 340 336 333 334 335 334 331 323 328 326 325 325 310 297 280 269 262 255 252 250 245 242 241 247 253 240 227 227 221 218 223 221 219 218 219 218 214 209 199 194 192 188 191 230 245 243 253 259 272 296 287 319 349 322 317 181 179 170 162 158 153 148 147 149 147 143 142 143 142 143 147 144 146 152 147 143 146 144 141 144
37 30 21 14 11 7 360 353 344 334 322 314 308 304 303 303 307 311 317 319 315 315 298 282 269 260 255 251 245 242 237 236 249 240 229 230 222 214 220 220 219 217 217 215 213 214 202 193 193 190 196 226 247 247 243 250 270 297 311 328 312 297 299 183 173 166 160 156 153 149 146 148 147 142 143 144 140 143 148 147 147 149 145 142 146 147 145 147
28 28 25 17 13 7 2 358 349 340 328 313 305 298 293 293 296 302 306 307 310 313 310 302 280 267 259 253 247 239 222 212 243 240 231 230 221 214 217 217 217 215 215 212 212 217 206 191 190 194 206 230 243 247 245 248 271 288 309 302 279 288 278 191 171 164 159 156 153 148 146 148 148 143 139 136 139 149 151 146 145 149 145 142 146 148 147 149
21 20 20 18 13 6 2 359 353 348 338 325 314 303 298 297 297 300 302 303 304 301 307 309 297 281 266 255 248 237 216 223 241 239 234 231 220 214 216 215 214 213 213 210 211 216 209 195 191 196 216 242 246 247 254 255 267 289 301 284 287 299 242 192 171 164 158 154 150 145 143 142 146 144 137 139 147 152 148 144 146 150 147 143 146 149 149 150
16 14 13 14 9 5 2 360 358 353 347 339 327 315 309 306 305 304 303 304 301 300 302 300 304 294 280 263 247 232 215 231 236 235 238 232 220 216 215 214 211 211 210 209 211 211 205 199 192 193 218 251 252 240 250 262 265 276 282 279 294 301 212 181 166 163 156 150 145 141 141 139 147 149 145 146 148 148 145 144 146 149 147 144 148 152 151 150
8 10 5 7 4 1 1 0 359 355 352 346 338 330 321 314 311 309 306 306 303 302 299 297 302 295 293 276 237 188 225 236 235 236 237 232 222 216 214 214 209 209 208 207 209 206 203 199 189 192 226 256 257 244 237 263 280 255 269 278 289 285 182 168 162 159 150 146 142 140 142 142 149 150 146 146 145 145 146 144 146 150 149 146 151 154 152 154
357 3 359 0 358 356 357 359 359 356 352 344 340 335 325 317 310 309 308 307 306 306 305 302 298 292 297 281 196 165 244 243 239 236 233 231 226 216 214 213 208 205 206 207 208 204 196 191 190 201 234 251 248 236 219 231 287 257 265 286 257 136 157 161 156 151 144 142 142 143 143 142 148 150 146 148 148 146 147 146 149 152 150 149 155 156 154 157
346 353 355 354 353 352 353 356 357 356 351 344 340 333 327 320 312 311 309 308 307 307 306 301 298 292 289 268 162 215 252 243 238 235 229 229 226 217 213 212 209 202 201 206 209 203 186 181 192 207 234 250 239 235 231 227 253 272 268 329 130 144 151 154 150 146 143 142 144 146 142 135 142 151 149 149 148 147 149 149 149 152 153 154 158 158 157 159
339 343 348 350 349 348 351 355 355 354 351 346 341 335 332 325 318 315 311 311 308 306 307 304 300 286 283 263 202 234 251 244 238 233 225 227 225 218 212 209 210 202 196 201 209 202 185 187 193 195 223 247 235 233 238 228 226 262 255 77 143 150 151 153 149 145 145 145 145 147 143 129 134 148 152 150 147 148 151 149 150 155 158 159 161 160 162 162
334 334 340 346 346 345 351 356 353 353 351 346 344 339 335 328 324 320 315 313 309 311 312 309 307 287 277 256 239 247 252 243 236 229 224 225 222 219 212 207 209 202 192 190 204 204 191 196 191 186 220 240 232 229 230 230 225 235 249 239 152 149 153 155 152 149 149 150 149 152 147 135 143 152 156 153 149 153 153 151 152 158 161 162 163 162 168 165
328 329 332 340 345 345 352 357 353 353 350 347 346 343 340 334 328 325 322 318 316 321 319 321 320 285 261 256 263 260 248 239 233 227 223 222 221 220 212 208 209 206 199 186 196 207 197 198 190 186 213 216 219 242 235 228 217 219 243 195 155 153 160 159 158 152 151 153 154 157 149 145 154 156 159 157 154 158 156 153 155 161 163 164 165 163 170 166
323 323 326 333 342 347 354 359 355 353 350 348 349 348 344 336 333 335 335 329 328 332 334 341 324 306 337 282 277 265 246 239 228 221 215 219 222 220 214 209 208 211 210 196 197 207 196 191 192 194 213 210 212 235 229 221 213 212 220 185 161 167 170 168 166 154 152 156 154 153 146 150 160 158 161 161 158 159 159 157 157 163 164 166 168 164 171 168
316 319 325 327 336 351 358 0 359 353 351 351 352 352 345 343 347 350 348 343 343 347 355 2 353 53 83 281 285 285 230 201 214 216 206 202 206 217 215 208 207 210 214 211 211 210 194 187 193 201 217 222 223 225 223 219 205 207 223 218 191 181 173 175 174 155 156 158 152 151 150 157 164 161 162 163 159 159 162 160 158 165 166 167 170 166 171 170
313 320 325 325 336 353 0 3 2 355 353 353 357 358 353 0 4 1 1 2 20 29 26 48 50 58 83 330 319 324 209 202 207 208 200 190 186 210 213 207 209 207 211 218 220 210 194 192 194 204 216 221 225 225 228 223 210 217 225 228 207 185 176 179 175 162 162 161 154 151 154 165 167 162 163 165 159 158 165 163 161 167 167 169 172 168 174 174
315 324 327 330 340 352 3 8 6 360 357 355 2 10 10 18 15 11 17 34 56 38 30 64 52 32 50 31 32 202 232 218 199 196 203 197 188 200 203 203 207 204 208 217 217 204 194 196 200 211 217 217 219 219 226 226 220 225 218 221 207 182 180 181 175 169 165 162 158 149 154 171 169 164 166 166 161 160 168 168 165 168 169 171 172 171 177 178
321 326 330 338 344 352 4 11 11 5 359 3 16 27 29 30 19 15 39 56 52 30 22 51 34 18 64 48 55 209 223 207 193 194 201 193 183 186 188 199 203 196 195 209 214 204 192 195 207 215 216 215 215 215 225 237 243 234 226 230 203 169 173 183 181 178 169 162 162 155 158 172 170 168 170 169 165 162 170 174 171 171 174 173 170 175 181 180
328 326 334 346 349 355 5 14 17 8 8 22 30 31 24 27 21 14 41 46 39 41 43 33 23 33 35 16 335 239 228 175 163 190 199 189 174 172 183 190 192 189 187 200 210 201 195 202 212 215 214 215 214 216 225 244 260 245 223 211 187 159 157 176 186 184 177 168 167 166 165 171 173 173 173 173 171 168 175 180 177 175 179 177 171 177 184 182
331 332 341 348 355 1 7 19 23 12 32 48 45 42 20 21 45 40 54 50 24 48 61 36 43 57 356 325 248 228 198 148 159 191 196 183 163 161 189 184 179 194 194 195 202 197 202 213 218 217 215 218 219 218 221 235 262 264 228 192 173 153 140 160 182 181 176 170 173 176 171 171 179 183 182 179 176 175 180 184 182 181 183 180 174 180 185 180
331 339 342 350 2 6 10 26 31 26 63 72 57 55 23 20 68 70 83 92 13 34 43 22 30 20 357 358 325 178 168 177 179 187 190 173 160 166 201 198 189 201 197 194 198 196 206 218 221 218 218 224 224 218 222 234 242 245 234 204 166 148 130 134 163 174 173 171 178 178 170 178 191 194 193 189 182 180 185 187 184 185 187 183 178 184 186 178
333 340 346 357 3 11 16 29 43 57 95 91 70 64 30 32 71 80 89 91 323 33 30 12 30 18 354 354 358 126 153 182 172 182 194 167 165 185 209 204 198 202 198 198 200 198 210 219 219 218 218 225 221 213 221 232 234 234 238 250 182 144 133 137 151 164 167 168 181 179 172 185 198 201 202 199 190 184 188 190 187 188 192 187 184 189 191 183
333 337 355 3 5 18 17 36 60 88 111 92 78 77 67 53 70 97 88 67 200 52 27 44 56 42 16 8 81 111 147 197 180 191 184 152 170 208 207 201 204 206 201 201 207 211 218 219 218 218 212 210 207 206 217 226 230 226 231 265 240 136 120 141 151 159 159 156 174 174 170 188 199 203 206 203 197 190 188 191 191 190 191 191 189 194 195 191
328 339 1 5 13 20 19 52 75 109 115 88 78 80 62 40 48 99 81 156 154 58 1 42 41 12 22 44 90 91 200 200 179 197 177 149 181 212 202 204 206 206 209 206 212 223 223 222 219 211 201 202 208 209 216 223 230 222 189 238 239 186 122 134 150 161 159 156 173 170 166 193 201 204 208 205 201 198 193 193 195 192 190 191 191 194 194 195
324 342 360 9 20 20 29 62 105 117 94 66 105 120 31 28 5 30 316 250 145 55 6 47 30 17 35 40 67 44 201 172 163 199 190 175 196 210 199 202 204 213 218 204 209 224 224 220 210 197 194 206 216 217 217 220 232 228 169 140 218 190 160 155 164 162 154 164 184 182 173 185 198 204 209 207 204 204 201 196 197 195 193 192 192 194 194 195
323 342 360 16 22 27 40 73 131 116 74 320 184 172 21 29 346 14 311 255 108 47 19 54 22 57 75 41 23 16 177 168 171 195 196 188 187 197 195 192 205 221 205 191 207 222 218 206 199 198 202 211 215 217 214 210 223 222 158 157 162 166 180 186 190 181 163 160 183 192 187 167 200 210 208 208 205 206 208 200 196 198 198 194 193 196 195 194
325 341 358 20 26 38 52 98 138 128 127 218 184 166 21 24 354 339 289 281 67 41 19 45 342 8 74 281 285 344 155 180 202 186 184 193 177 180 201 198 210 216 197 195 203 205 205 209 208 208 212 216 215 213 206 194 209 232 171 196 203 182 195 198 204 207 200 194 188 196 194 178 209 214 203 203 203 205 209 203 197 197 198 196 194 196 196 196
327 337 356 26 35 54 75 118 138 135 135 155 153 112 331 349 356 294 268 336 62 51 38 35 2 37 102 221 105 295 188 186 219 170 178 215 195 190 202 208 215 215 206 208 208 199 209 220 220 214 214 216 213 211 204 189 207 234 197 200 211 203 207 209 220 218 203 212 204 196 194 184 191 200 193 196 203 207 210 207 204 201 197 196 196 196 197 197
327 333 1 36 52 85 105 124 127 125 123 120 116 107 301 300 292 273 276 29 52 41 48 35 20 50 225 211 160 181 190 178 202 170 187 220 196 191 196 186 202 214 208 214 224 235 214 208 209 211 213 213 210 208 204 192 203 212 194 201 214 211 215 218 229 239 222 219 217 201 189 175 168 198 196 197 204 208 207 204 204 203 200 198 197 196 197 197
326 326 25 64 83 109 128 134 128 126 124 105 85 94 59 290 268 274 6 48 329 350 24 46 18 359 278 237 188 165 190 201 217 183 183 201 194 197 205 196 198 213 210 213 221 224 209 209 209 205 206 209 208 202 196 200 207 205 199 204 212 208 212 226 232 249 252 228 223 206 186 185 199 204 201 203 205 206 206 204 203 203 202 200 198 197 197 198
321 333 71 97 98 121 139 137 137 133 118 100 87 84 322 286 273 310 23 331 253 349 6 13 5 357 292 234 151 101 177 189 202 197 195 203 198 197 204 203 203 210 208 204 203 202 210 219 213 205 203 204 208 201 195 207 211 206 200 200 210 211 204 224 233 241 249 242 236 218 197 196 182 168 186 193 192 201 203 200 201 204 204 202 200 199 198 198
312 99 104 117 113 134 147 143 146 138 104 96 97 73 281 287 328 25 352 327 3 21 360 343 342 2 302 234 157 101 191 160 191 212 213 215 205 206 209 206 218 230 225 207 199 198 203 207 205 206 203 198 204 202 196 201 203 203 203 201 210 218 213 224 219 229 251 236 221 236 227 196 150 142 164 177 176 188 193 187 188 197 203 203 202 200 200 200
207 135 109 112 122 140 154 155 151 143 108 105 117 266 276 296 7 5 324 7 26 336 327 318 291 290 318 307 191 243 259 233 248 218 204 212 209 213 214 210 228 247 246 222 208 202 200 205 202 199 201 197 198 203 202 204 206 207 209 208 215 224 230 236 193 204 283 272 222 232 243 210 160 146 151 165 168 174 183 182 181 185 194 201 200 199 201 201
111 116 109 115 139 144 153 156 147 148 127 107 253 271 283 327 10 350 344 14 358 318 320 298 288 282 303 339 347 271 306 305 274 244 216 208 201 216 221 216 225 231 236 241 225 210 213 227 209 195 200 199 197 206 212 215 216 210 212 218 221 222 228 241 238 229 273 284 243 227 251 233 136 136 135 151 162 167 170 175 185 189 186 191 196 199 202 202
109 105 106 126 142 151 155 146 137 139 123 98 282 281 323 16 360 4 349 325 317 321 312 282 276 279 275 294 315 205 297 314 288 272 246 193 187 216 218 212 223 222 227 251 249 222 222 233 197 183 195 201 200 207 208 212 216 203 209 221 222 219 215 231 253 252 262 280 229 216 256 230 131 144 145 149 156 161 163 172 187 196 190 190 194 199 203 203
125 108 121 161 174 177 163 151 140 123 101 357 291 300 18 359 321 346 337 326 323 306 300 295 280 272 275 280 266 154 202 271 309 281 247 184 175 204 209 219 244 241 236 251 261 240 235 232 179 172 198 204 199 208 207 214 225 207 209 217 214 210 203 211 246 251 248 258 207 200 228 220 196 181 168 165 170 167 166 179 192 197 197 198 197 198 201 202
116 100 143 218 221 188 166 172 143 115 79 311 287 282 303 313 349 345 331 331 325 292 294 302 280 261 278 291 295 147 170 216 329 230 232 226 215 211 233 238 232 235 238 242 249 242 246 244 188 176 206 204 191 205 209 214 226 227 225 217 206 204 198 197 220 239 232 238 238 227 225 221 195 170 172 176 180 175 173 191 206 204 205 207 201 199 200 200
69 96 199 263 272 194 212 136 117 99 307 281 269 233 248 301 1 341 334 330 321 313 313 309 269 260 275 298 316 309 204 237 207 192 204 224 210 198 243 246 223 236 238 237 245 238 240 247 198 175 199 201 192 205 209 206 211 221 239 223 211 214 216 209 214 231 247 252 261 263 252 262 103 151 177 168 167 175 177 194 219 219 207 209 205 203 201 201
84 106 224 265 288 255 146 87 87 3 282 269 270 214 210 272 325 317 333 330 310 307 324 323 291 275 270 276 275 232 249 258 181 191 192 183 188 193 218 246 253 268 254 239 247 240 230 243 231 184 190 198 200 206 209 206 202 207 219 218 210 214 222 225 224 226 232 235 235 255 261 314 111 150 174 161 165 179 175 188 216 213 200 205 209 210 205 203
125 178 235 262 280 252 118 73 28 281 265 252 222 217 225 228 294 326 316 328 326 303 318 322 302 297 286 279 279 177 249 251 201 249 246 166 187 211 224 245 284 288 269 243 232 226 228 248 253 216 196 204 208 208 209 210 206 206 211 215 215 213 214 221 225 222 228 233 237 249 242 155 144 136 145 161 164 167 166 181 201 199 198 206 206 213 210 206
151 215 237 258 273 212 145 248 282 262 255 223 179 184 247 230 267 314 290 293 309 295 310 310 294 298 287 285 308 302 269 255 201 230 228 153 152 282 240 248 279 299 274 252 241 235 235 255 261 240 220 220 218 213 211 213 214 212 211 214 222 223 219 223 228 220 228 237 240 248 247 176 157 142 139 162 162 166 171 177 187 189 199 209 202 205 211 208
158 254 265 266 261 211 188 247 255 233 253 247 203 217 268 221 264 329 303 274 278 286 312 306 286 296 298 289 296 286 263 247 196 223 252 171 188 232 232 250 278 292 267 250 264 265 238 243 249 244 246 244 222 209 207 211 216 216 213 212 219 225 221 228 238 235 234 238 239 249 246 176 175 173 159 166 166 170 174 174 184 190 195 206 201 190 199 203
216 259 274 267 247 198 212 259 264 224 224 245 220 214 201 186 218 354 352 304 281 291 303 299 275 293 316 300 281 282 272 256 233 240 238 184 189 231 246 266 278 282 253 237 250 269 250 247 243 236 237 236 213 198 194 204 212 217 217 209 213 224 224 228 240 244 246 242 231 240 249 165 199 195 160 164 164 155 164 172 183 189 188 197 192 182 188 196
220 228 238 260 240 201 225 264 277 242 213 209 212 207 206 214 229 294 335 302 284 285 287 286 269 277 297 293 269 271 271 262 262 259 232 208 212 238 262 279 277 261 246 235 231 255 263 259 250 236 227 219 215 206 198 205 209 215 220 210 209 220 224 228 232 232 241 244 233 237 232 148 230 226 164 172 181 174 177 174 166 172 181 188 186 184 188 192
215 227 223 237 234 223 236 248 248 246 228 211 213 211 213 217 240 285 284 277 277 274 278 282 278 270 279 281 267 262 258 258 264 261 241 233 223 221 254 282 274 252 246 232 226 252 271 260 252 248 241 236 237 234 229 221 211 210 217 215 213 217 219 228 233 228 235 243 239 241 227 193 245 251 190 178 188 194 194 180 163 159 167 185 188 189 193 194
201 228 230 222 216 223 233 228 223 234 232 212 209 207 213 219 231 255 263 284 283 272 263 262 264 270 278 283 272 266 262 260 263 259 249 244 232 230 251 267 271 263 257 242 231 252 276 262 250 257 249 238 238 239 234 228 216 210 214 217 217 214 213 221 229 233 245 243 241 256 239 220 229 232 222 205 197 211 207 185 165 149 149 184 192 187 190 197
212 235 242 222 203 205 228 220 213 223 226 222 218 210 221 231 225 229 256 295 298 279 257 252 253 261 277 287 272 267 268 256 256 255 244 244 250 243 240 242 265 275 264 252 243 247 268 267 253 263 253 230 229 234 226 225 222 215 213 214 214 214 214 221 229 238 252 248 261 325 279 213 213 220 231 227 214 231 218 187 161 145 158 200 200 191 189 193
220 241 243 227 213 217 240 215 202 223 229 225 232 232 227 231 227 225 244 270 272 267 261 258 256 251 265 278 264 268 270 251 252 251 232 239 253 240 236 232 240 272 272 257 252 247 260 267 257 267 265 226 217 222 221 221 222 218 219 222 219 217 217 220 228 236 244 243 257 293 219 179 159 178 196 199 216 247 229 192 167 159 180 205 206 197 193 192
214 223 222 221 221 230 243 223 215 235 229 218 229 234 223 229 234 222 227 250 259 266 259 256 258 254 262 263 250 261 264 243 255 255 222 238 248 229 242 239 229 268 282 266 262 249 248 260 254 260 272 236 210 209 213 210 206 207 217 226 224 219 218 221 227 236 240 231 231 236 218 173 156 180 193 199 222 242 221 198 183 177 187 199 207 204 200 200
216 217 213 212 219 228 229 226 226 232 228 222 228 228 219 225 228 208 212 244 248 245 250 254 250 240 253 257 243 253 254 231 245 250 222 244 262 223 234 265 257 275 277 267 265 243 239 256 242 235 263 246 204 198 202 189 177 172 159 183 217 207 203 208 212 216 216 209 207 203 192 187 208 227 230 214 217 227 204 201 198 193 190 193 203 206 205 204
218 217 216 217 225 228 224 223 223 227 232 227 219 219 222 223 215 207 229 259 255 226 218 227 232 235 254 246 218 228 238 225 235 240 224 239 265 248 244 267 282 280 269 268 266 243 236 244 234 229 251 246 204 190 194 184 171 156 99 43 299 189 171 167 172 169 173 199 205 196 182 195 223 237 233 188 162 171 185 196 200 200 198 196 201 203 200 198
Height
3155 3154 3153 3153 3152 3152 3152 3151 3151 3150 3150 3150 3149 3149 3148 3148 3147 3147 3147 3146 3146 3146 3146 3146 3146 3147 3147 3148 3149 3149 3150 3151 3151 3152 3152 3153 3154 3155 3156 3158 3159 3160 3161 3162 3163 3164 3165 3165 3166 3166 3166 3167 3167 3168 3168 3167 3167 3167 3167 3166 3165 3165 3165 3165 3165 3166 3168 3168 3168 3170 3172 3174 3176 3177 3179 3180 3182 3184 3186 3188 3190 3192 3194 3194 3195 3197 3198 3200
3155 3154 3153 3153 3152 3152 3151 3151 3151 3150 3150 3149 3149 3148 3148 3147 3147 3147 3146 3146 3146 3145 3145 3145 3145 3145 3145 3146 3147 3148 3149 3150 3150 3150 3151 3152 3153 3154 3155 3157 3158 3160 3161 3162 3163 3164 3165 3165 3166 3166 3167 3168 3168 3169 3168 3168 3168 3168 3168 3167 3166 3165 3165 3166 3167 3167 3168 3168 3169 3170 3172 3175 3176 3178 3179 3180 3182 3185 3186 3188 3191 3193 3193 3194 3196 3198 3199 3201
3155 3154 3154 3153 3152 3152 3151 3151 3151 3150 3150 3149 3149 3148 3148 3147 3146 3146 3146 3145 3145 3144 3144 3144 3144 3144 3144 3145 3146 3147 3148 3149 3149 3148 3150 3151 3152 3153 3155 3156 3157 3159 3160 3161 3162 3163 3164 3165 3165 3166 3167 3169 3170 3170 3169 3169 3168 3168 3168 3167 3166 3166 3166 3166 3166 3167 3168 3169 3169 3171 3173 3175 3177 3178 3180 3181 3183 3185 3187 3189 3191 3192 3193 3194 3197 3199 3200 3202
3156 3155 3154 3153 3152 3152 3151 3151 3150 3150 3149 3149 3148 3148 3148 3147 3146 3146 3145 3145 3144 3144 3143 3143 3143 3143 3143 3144 3145 3146 3147 3149 3147 3146 3149 3150 3151 3153 3154 3155 3156 3158 3159 3160 3162 3163 3163 3164 3165 3166 3168 3170 3170 3169 3170 3170 3168 3168 3168 3168 3167 3166 3165 3165 3165 3166 3168 3170 3170 3172 3174 3175 3177 3179 3181 3183 3184 3186 3188 3190 3191 3192 3194 3195 3197 3199 3201 3203
3156 3155 3154 3153 3153 3152 3151 3150 3150 3149 3149 3148 3148 3148 3147 3147 3146 3146 3145 3145 3144 3144 3143 3143 3142 3142 3142 3142 3144 3145 3147 3149 3145 3144 3148 3148 3150 3152 3152 3154 3155 3157 3158 3160 3161 3162 3163 3164 3166 3166 3168 3170 3171 3169 3170 3170 3169 3168 3169 3169 3168 3165 3165 3165 3165 3166 3167 3170 3172 3173 3175 3176 3177 3179 3181 3183 3185 3187 3188 3190 3192 3194 3195 3196 3199 3200 3202 3203
3156 3155 3155 3154 3153 3152 3151 3150 3150 3149 3149 3148 3148 3147 3147 3146 3146 3145 3145 3145 3144 3143 3143 3142 3141 3141 3141 3142 3143 3144 3146 3147 3142 3143 3147 3147 3149 3151 3151 3153 3154 3156 3157 3159 3161 3162 3163 3164 3165 3166 3168 3170 3170 3169 3169 3170 3169 3169 3171 3169 3167 3165 3164 3164 3165 3167 3168 3170 3172 3174 3176 3177 3178 3179 3182 3184 3186 3187 3189 3190 3192 3195 3196 3198 3200 3201 3203 3204
3156 3155 3154 3154 3153 3152 3151 3150 3150 3149 3148 3148 3147 3147 3146 3146 3145 3145 3144 3144 3144 3143 3143 3142 3141 3141 3141 3141 3142 3143 3146 3144 3140 3143 3145 3146 3149 3150 3150 3152 3153 3155 3157 3158 3160 3161 3163 3164 3165 3167 3169 3171 3170 3169 3169 3169 3170 3170 3170 3168 3165 3165 3164 3164 3165 3167 3168 3170 3172 3175 3177 3178 3179 3180 3182 3184 3186 3188 3189 3191 3193 3195 3197 3199 3201 3202 3204 3205
3156 3155 3154 3154 3153 3152 3151 3150 3150 3149 3148 3148 3147 3146 3146 3145 3145 3144 3144 3144 3143 3143 3142 3141 3141 3141 3140 3141 3141 3143 3145 3141 3140 3143 3144 3145 3148 3148 3150 3151 3153 3154 3156 3158 3159 3161 3163 3164 3166 3167 3170 3171 3169 3169 3169 3169 3170 3171 3169 3166 3165 3165 3164 3164 3166 3167 3169 3172 3174 3176 3178 3179 3180 3181 3182 3184 3186 3188 3190 3192 3194 3196 3198 3199 3201 3203 3205 3206
3156 3155 3154 3153 3153 3152 3151 3150 3150 3149 3148 3148 3147 3146 3146 3145 3144 3144 3143 3143 3142 3142 3142 3141 3141 3140 3140 3140 3141 3143 3142 3139 3140 3142 3143 3145 3146 3147 3149 3151 3152 3154 3155 3157 3158 3160 3162 3164 3166 3167 3170 3171 3169 3169 3169 3169 3170 3169 3166 3165 3165 3164 3163 3164 3165 3167 3170 3173 3175 3177 3179 3180 3181 3182 3183 3185 3187 3189 3191 3193 3195 3197 3199 3201 3203 3204 3206 3207
3155 3155 3154 3153 3153 3152 3151 3150 3150 3149 3148 3148 3147 3146 3146 3145 3144 3143 3143 3142 3142 3141 3141 3141 3140 3140 3140 3140 3141 3143 3140 3138 3141 3141 3142 3144 3145 3147 3148 3150 3152 3153 3155 3156 3158 3159 3162 3164 3166 3168 3169 3169 3169 3169 3169 3170 3169 3166 3164 3165 3165 3163 3162 3163 3165 3168 3171 3173 3176 3178 3180 3180 3182 3183 3184 3186 3188 3190 3192 3194 3196 3199 3200 3202 3204 3205 3207 3208
3155 3155 3154 3153 3152 3152 3151 3150 3149 3149 3148 3147 3147 3146 3145 3144 3144 3143 3142 3142 3141 3141 3140 3140 3140 3139 3139 3140 3141 3140 3137 3138 3140 3140 3142 3144 3144 3146 3148 3150 3151 3152 3154 3156 3157 3159 3161 3164 3166 3168 3169 3169 3169 3169 3169 3168 3168 3166 3164 3165 3165 3164 3163 3164 3166 3169 3171 3173 3175 3178 3180 3181 3183 3184 3185 3186 3189 3191 3193 3195 3197 3200 3202 3203 3204 3206 3207 3209
3155 3154 3154 3153 3152 3151 3151 3150 3149 3148 3148 3147 3146 3145 3145 3144 3143 3143 3142 3141 3140 3140 3139 3139 3139 3139 3138 3139 3139 3137 3136 3138 3138 3139 3142 3143 3144 3145 3147 3149 3151 3152 3153 3155 3157 3158 3160 3162 3164 3166 3168 3168 3169 3169 3168 3167 3168 3166 3165 3166 3166 3166 3166 3166 3168 3170 3172 3174 3175 3178 3181 3182 3184 3185 3186 3187 3189 3191 3193 3196 3198 3201 3202 3204 3205 3206 3208 3210
3155 3154 3153 3153 3152 3151 3151 3150 3149 3148 3147 3146 3146 3145 3144 3144 3143 3142 3141 3140 3139 3139 3138 3138 3138 3138 3138 3138 3137 3136 3137 3138 3138 3139 3141 3142 3144 3145 3146 3148 3150 3151 3153 3155 3157 3158 3159 3161 3162 3164 3166 3167 3168 3169 3167 3167 3168 3166 3166 3167 3167 3167 3168 3168 3169 3171 3173 3175 3176 3178 3181 3183 3184 3185 3187 3188 3190 3192 3194 3196 3199 3201 3203 3204 3206 3207 3209 3210
3154 3154 3153 3153 3152 3151 3150 3150 3149 3148 3147 3146 3145 3145 3144 3143 3142 3142 3140 3140 3139 3138 3138 3137 3137 3137 3137 3137 3136 3136 3137 3137 3138 3139 3140 3142 3143 3144 3146 3147 3149 3151 3152 3154 3156 3157 3158 3160 3161 3162 3164 3166 3167 3168 3167 3168 3169 3167 3167 3168 3167 3168 3169 3169 3170 3171 3173 3175 3177 3179 3181 3183 3184 3185 3188 3189 3191 3192 3194 3196 3200 3202 3203 3205 3206 3207 3209 3210
3154 3154 3153 3152 3152 3151 3150 3150 3149 3148 3147 3146 3145 3144 3144 3143 3142 3141 3140 3139 3138 3138 3137 3137 3137 3136 3137 3137 3135 3136 3136 3137 3138 3138 3140 3142 3143 3144 3145 3147 3149 3150 3151 3153 3155 3156 3157 3160 3161 3162 3164 3165 3165 3167 3168 3169 3169 3168 3168 3169 3169 3169 3169 3170 3170 3171 3173 3175 3177 3179 3181 3183 3184 3186 3188 3190 3191 3193 3194 3196 3200 3202 3203 3205 3206 3208 3210 3211
3154 3153 3153 3152 3152 3151 3150 3150 3149 3148 3147 3146 3145 3145 3144 3143 3142 3141 3140 3139 3138 3138 3137 3137 3137 3137 3138 3138 3136 3135 3137 3138 3138 3138 3140 3142 3143 3144 3145 3146 3148 3150 3152 3153 3154 3155 3157 3159 3160 3162 3165 3166 3166 3167 3168 3168 3168 3168 3168 3170 3170 3170 3170 3170 3171 3172 3173 3175 3176 3179 3181 3183 3184 3186 3188 3190 3191 3193 3195 3197 3200 3202 3204 3205 3207 3208 3210 3211
3153 3153 3153 3152 3151 3151 3150 3149 3149 3147 3146 3146 3145 3145 3144 3143 3142 3141 3140 3139 3138 3138 3138 3138 3138 3138 3139 3138 3137 3137 3138 3137 3138 3139 3140 3141 3143 3144 3145 3147 3148 3150 3152 3153 3154 3156 3158 3159 3160 3162 3164 3165 3167 3167 3167 3166 3167 3168 3169 3171 3171 3170 3170 3169 3171 3173 3174 3175 3176 3178 3181 3183 3184 3186 3188 3190 3191 3194 3195 3197 3200 3202 3204 3206 3207 3209 3210 3211
3153 3153 3152 3152 3151 3151 3150 3149 3148 3147 3147 3146 3146 3145 3144 3144 3143 3141 3140 3139 3139 3139 3139 3139 3139 3139 3139 3139 3139 3139 3138 3137 3138 3139 3140 3141 3143 3144 3145 3147 3148 3150 3152 3153 3155 3156 3158 3159 3160 3162 3163 3164 3165 3166 3165 3165 3165 3167 3169 3171 3171 3171 3171 3170 3171 3172 3173 3175 3177 3178 3181 3183 3185 3186 3188 3190 3191 3193 3196 3197 3200 3202 3204 3205 3207 3209 3210 3211
3152 3152 3152 3151 3151 3151 3150 3149 3148 3148 3147 3146 3146 3145 3145 3144 3143 3142 3141 3140 3140 3141 3142 3141 3140 3141 3141 3140 3140 3139 3138 3138 3138 3139 3140 3142 3143 3144 3146 3147 3148 3150 3153 3154 3155 3156 3158 3159 3160 3161 3162 3163 3164 3165 3165 3164 3164 3167 3168 3170 3172 3170 3170 3170 3171 3172 3173 3174 3176 3178 3180 3183 3184 3186 3188 3190 3191 3194 3196 3197 3199 3201 3203 3205 3207 3209 3210 3211
3152 3152 3152 3151 3151 3150 3150 3149 3148 3148 3147 3147 3146 3146 3145 3145 3145 3145 3142 3141 3142 3142 3143 3143 3142 3143 3142 3141 3141 3139 3138 3137 3139 3141 3141 3142 3144 3145 3146 3148 3149 3151 3154 3156 3156 3157 3158 3159 3159 3159 3160 3162 3163 3164 3165 3164 3165 3167 3168 3171 3173 3170 3169 3169 3170 3171 3173 3174 3177 3179 3181 3183 3184 3186 3188 3190 3191 3194 3195 3196 3198 3200 3202 3204 3207 3209 3210 3211
3152 3151 3151 3151 3151 3150 3150 3149 3148 3148 3148 3148 3147 3146 3147 3147 3146 3146 3143 3144 3145 3143 3143 3143 3142 3142 3142 3141 3140 3139 3139 3139 3141 3142 3141 3142 3144 3147 3148 3148 3151 3152 3154 3156 3157 3157 3158 3158 3158 3158 3160 3162 3163 3164 3165 3165 3165 3166 3168 3170 3172 3170 3168 3170 3169 3171 3174 3175 3178 3179 3181 3183 3185 3186 3188 3189 3190 3193 3195 3195 3197 3199 3200 3202 3206 3208 3209 3211
3151 3151 3151 3151 3151 3150 3150 3149 3149 3149 3148 3148 3147 3147 3148 3147 3146 3145 3144 3146 3147 3145 3144 3143 3142 3143 3142 3140 3139 3138 3140 3141 3142 3142 3142 3143 3145 3148 3149 3150 3151 3153 3154 3155 3156 3157 3157 3156 3157 3159 3160 3162 3163 3164 3165 3166 3166 3166 3167 3169 3170 3167 3167 3170 3171 3172 3174 3176 3178 3179 3181 3183 3184 3186 3188 3189 3190 3192 3194 3194 3196 3198 3199 3201 3204 3206 3207 3210
3151 3151 3151 3150 3150 3150 3150 3149 3149 3149 3149 3149 3148 3148 3149 3148 3146 3146 3145 3145 3147 3146 3145 3145 3144 3145 3143 3141 3139 3137 3140 3143 3143 3143 3143 3144 3146 3148 3149 3150 3152 3153 3153 3154 3155 3156 3155 3155 3157 3159 3160 3161 3162 3164 3165 3166 3165 3165 3166 3167 3167 3166 3166 3170 3172 3172 3174 3176 3177 3178 3180 3182 3184 3186 3187 3188 3189 3191 3193 3194 3195 3197 3198 3200 3202 3204 3206 3208
3151 3151 3150 3150 3150 3150 3150 3149 3149 3150 3149 3149 3149 3149 3149 3148 3147 3147 3145 3145 3147 3147 3146 3145 3145 3145 3144 3142 3140 3138 3141 3144 3143 3144 3143 3144 3147 3148 3148 3150 3152 3152 3153 3153 3155 3155 3154 3155 3156 3158 3159 3160 3162 3163 3165 3165 3164 3164 3164 3166 3166 3166 3167 3169 3171 3173 3174 3176 3177 3178 3180 3182 3182 3184 3185 3187 3188 3189 3190 3192 3194 3195 3197 3200 3201 3203 3205 3207
3151 3151 3150 3150 3150 3150 3150 3149 3150 3150 3150 3150 3150 3150 3150 3149 3148 3147 3146 3145 3146 3146 3145 3144 3144 3145 3144 3142 3141 3140 3143 3144 3144 3144 3143 3145 3148 3149 3149 3150 3151 3152 3152 3153 3154 3154 3154 3155 3155 3156 3158 3160 3162 3163 3164 3165 3163 3163 3164 3165 3165 3166 3168 3170 3171 3173 3175 3176 3177 3177 3179 3181 3182 3183 3184 3186 3188 3189 3189 3190 3192 3194 3196 3198 3200 3202 3204 3206
3151 3150 3150 3150 3150 3150 3149 3150 3150 3150 3151 3151 3151 3151 3150 3149 3149 3147 3146 3144 3144 3146 3146 3145 3145 3144 3144 3143 3142 3143 3143 3144 3145 3144 3144 3145 3147 3147 3149 3150 3150 3150 3152 3153 3154 3154 3153 3153 3154 3155 3157 3159 3161 3162 3163 3164 3164 3163 3163 3164 3165 3166 3169 3170 3171 3173 3175 3177 3177 3177 3178 3180 3182 3183 3183 3185 3186 3188 3189 3189 3191 3192 3194 3196 3198 3200 3202 3205
3151 3150 3150 3150 3150 3150 3149 3150 3150 3151 3152 3152 3151 3151 3150 3150 3149 3148 3147 3143 3142 3146 3147 3147 3146 3144 3145 3145 3144 3144 3143 3143 3144 3144 3144 3145 3146 3147 3148 3149 3150 3150 3150 3152 3152 3152 3152 3153 3154 3155 3157 3159 3160 3161 3162 3164 3165 3163 3163 3165 3166 3166 3168 3169 3170 3171 3173 3175 3176 3176 3177 3178 3180 3181 3182 3184 3185 3187 3188 3188 3189 3190 3192 3195 3197 3199 3201 3203
3151 3150 3150 3150 3150 3150 3149 3150 3150 3151 3152 3152 3151 3151 3151 3150 3149 3148 3148 3143 3142 3146 3147 3146 3145 3144 3145 3145 3144 3144 3144 3144 3144 3144 3145 3145 3145 3147 3148 3148 3150 3150 3150 3151 3151 3151 3152 3153 3154 3156 3157 3158 3159 3160 3161 3163 3165 3164 3164 3166 3166 3167 3168 3168 3169 3170 3171 3173 3175 3175 3176 3177 3178 3178 3181 3184 3185 3185 3186 3186 3187 3188 3190 3193 3195 3198 3200 3202
3150 3150 3150 3149 3149 3149 3149 3150 3150 3150 3151 3151 3151 3151 3151 3150 3149 3149 3147 3144 3144 3146 3147 3146 3144 3144 3145 3145 3144 3145 3144 3145 3144 3144 3146 3146 3145 3146 3146 3148 3150 3150 3150 3150 3149 3150 3151 3152 3154 3155 3157 3157 3158 3160 3161 3161 3164 3164 3164 3166 3167 3167 3167 3168 3169 3169 3169 3171 3172 3172 3173 3174 3176 3177 3179 3182 3182 3181 3182 3184 3185 3187 3189 3191 3194 3196 3198 3201
3150 3150 3150 3149 3149 3149 3150 3150 3150 3151 3151 3151 3151 3151 3151 3150 3150 3148 3144 3143 3145 3146 3146 3146 3145 3145 3145 3145 3144 3145 3145 3145 3145 3144 3146 3146 3146 3146 3146 3147 3148 3149 3150 3149 3148 3149 3150 3151 3152 3154 3155 3157 3158 3160 3160 3161 3163 3165 3165 3167 3167 3167 3167 3167 3167 3168 3168 3168 3167 3167 3168 3171 3174 3176 3176 3177 3177 3178 3179 3181 3183 3185 3187 3189 3192 3194 3197 3199
3150 3150 3149 3149 3149 3149 3150 3150 3151 3151 3152 3151 3151 3151 3151 3150 3149 3146 3143 3145 3147 3146 3145 3146 3146 3145 3144 3144 3143 3144 3144 3145 3145 3145 3146 3147 3146 3147 3147 3147 3148 3149 3149 3148 3148 3149 3150 3150 3151 3153 3154 3156 3158 3159 3159 3161 3164 3165 3166 3167 3167 3166 3167 3167 3166 3167 3167 3164 3162 3162 3164 3167 3169 3171 3173 3174 3175 3176 3177 3178 3179 3181 3184 3187 3189 3192 3195 3197
3150 3150 3149 3149 3149 3150 3150 3150 3151 3152 3152 3152 3152 3151 3151 3150 3148 3145 3145 3146 3146 3146 3145 3146 3146 3146 3145 3143 3143 3143 3144 3144 3144 3145 3145 3146 3146 3146 3147 3147 3147 3147 3146 3146 3147 3148 3150 3151 3151 3153 3153 3155 3156 3157 3158 3161 3164 3165 3165 3167 3166 3166 3167 3167 3167 3168 3166 3161 3160 3160 3161 3163 3164 3167 3170 3172 3174 3175 3175 3177 3177 3179 3181 3184 3187 3190 3193 3196
3150 3150 3149 3149 3149 3150 3150 3151 3152 3152 3152 3152 3152 3151 3152 3150 3146 3146 3147 3146 3145 3146 3146 3147 3147 3146 3145 3144 3143 3144 3144 3143 3143 3144 3144 3145 3145 3146 3145 3145 3146 3145 3143 3144 3145 3146 3148 3149 3150 3152 3152 3153 3154 3155 3157 3160 3162 3163 3163 3165 3165 3165 3166 3166 3165 3167 3165 3161 3162 3162 3160 3160 3162 3165 3167 3169 3173 3174 3173 3174 3176 3177 3179 3182 3185 3188 3191 3194
3150 3150 3150 3150 3150 3150 3151 3151 3152 3152 3153 3152 3152 3152 3152 3149 3147 3148 3148 3146 3147 3147 3146 3147 3146 3145 3145 3144 3144 3145 3144 3143 3143 3143 3144 3144 3145 3145 3144 3145 3146 3145 3144 3144 3142 3143 3144 3145 3146 3149 3150 3152 3154 3154 3156 3159 3160 3161 3162 3163 3164 3164 3164 3163 3163 3166 3167 3164 3164 3165 3162 3159 3161 3164 3166 3168 3172 3173 3172 3172 3174 3175 3177 3179 3183 3187 3189 3191
3150 3150 3150 3150 3150 3151 3151 3152 3152 3153 3153 3152 3152 3152 3151 3149 3149 3149 3148 3148 3149 3148 3146 3147 3146 3145 3146 3145 3145 3145 3145 3145 3144 3143 3144 3144 3145 3146 3145 3146 3146 3146 3146 3145 3141 3140 3141 3141 3142 3146 3149 3150 3153 3154 3156 3158 3159 3160 3161 3162 3162 3163 3164 3164 3165 3168 3169 3166 3165 3166 3164 3161 3162 3165 3167 3169 3172 3172 3173 3172 3172 3174 3175 3177 3181 3184 3187 3189
3150 3150 3150 3150 3151 3151 3152 3152 3152 3153 3153 3153 3153 3152 3150 3150 3150 3150 3149 3149 3149 3148 3148 3147 3146 3146 3146 3146 3145 3146 3146 3146 3145 3145 3144 3144 3146 3147 3146 3146 3146 3146 3146 3146 3144 3141 3140 3140 3140 3144 3148 3149 3152 3154 3156 3157 3157 3157 3159 3160 3161 3163 3164 3165 3166 3166 3168 3168 3166 3164 3164 3164 3165 3167 3168 3169 3170 3171 3173 3172 3171 3173 3174 3176 3178 3181 3184 3186
3150 3151 3151 3151 3151 3151 3152 3152 3152 3153 3153 3153 3153 3152 3151 3151 3151 3151 3150 3149 3149 3149 3148 3148 3147 3147 3147 3146 3146 3146 3147 3147 3147 3146 3145 3145 3146 3147 3146 3146 3146 3147 3147 3147 3147 3144 3142 3141 3140 3144 3148 3149 3151 3154 3155 3156 3156 3156 3157 3158 3161 3163 3164 3165 3166 3164 3167 3170 3166 3161 3163 3165 3165 3166 3167 3168 3169 3170 3171 3171 3171 3173 3174 3175 3177 3179 3181 3184
3151 3151 3152 3152 3151 3152 3152 3152 3153 3153 3152 3152 3153 3153 3152 3152 3151 3151 3151 3149 3150 3149 3148 3148 3147 3147 3147 3146 3146 3146 3147 3147 3147 3147 3147 3146 3147 3147 3147 3147 3147 3148 3148 3149 3148 3146 3144 3142 3140 3144 3147 3148 3150 3153 3153 3155 3155 3155 3155 3156 3159 3160 3161 3163 3164 3163 3163 3164 3161 3159 3160 3161 3162 3164 3166 3167 3168 3169 3170 3170 3170 3171 3173 3174 3175 3177 3179 3182
3151 3152 3153 3152 3152 3152 3152 3153 3153 3153 3152 3153 3153 3152 3152 3152 3151 3151 3151 3150 3150 3150 3148 3148 3148 3147 3147 3146 3146 3147 3147 3147 3147 3147 3147 3147 3147 3148 3148 3147 3147 3148 3149 3149 3148 3146 3146 3143 3140 3142 3145 3147 3149 3150 3150 3152 3154 3155 3155 3154 3155 3157 3159 3160 3162 3162 3161 3161 3162 3161 3159 3159 3161 3164 3164 3165 3166 3167 3168 3169 3169 3170 3171 3172 3173 3175 3176 3178
3152 3153 3154 3152 3152 3153 3152 3153 3153 3152 3152 3152 3152 3152 3152 3152 3152 3151 3150 3149 3150 3150 3149 3148 3148 3147 3147 3146 3146 3146 3147 3147 3146 3146 3146 3146 3147 3148 3148 3148 3148 3148 3148 3148 3147 3146 3146 3145 3142 3141 3143 3144 3145 3145 3146 3148 3151 3154 3154 3153 3153 3156 3158 3159 3160 3161 3161 3162 3163 3162 3161 3162 3163 3163 3163 3164 3165 3166 3167 3168 3169 3169 3170 3171 3172 3173 3175 3176
3152 3154 3154 3151 3152 3153 3152 3152 3152 3153 3153 3152 3152 3152 3152 3152 3152 3151 3150 3149 3149 3149 3149 3149 3148 3147 3147 3146 3145 3146 3146 3146 3146 3146 3146 3146 3147 3148 3148 3148 3149 3149 3148 3148 3148 3147 3147 3145 3143 3142 3142 3141 3142 3143 3145 3147 3149 3151 3153 3153 3153 3154 3156 3157 3156 3158 3159 3159 3158 3158 3161 3164 3162 3161 3163 3164 3165 3165 3167 3168 3168 3168 3169 3169 3171 3173 3174 3176
3152 3154 3152 3151 3152 3153 3152 3152 3153 3153 3153 3151 3151 3152 3151 3151 3152 3151 3151 3150 3150 3150 3149 3149 3148 3147 3147 3146 3145 3146 3146 3145 3146 3147 3147 3147 3147 3148 3148 3148 3149 3149 3148 3147 3147 3147 3147 3146 3144 3142 3140 3140 3141 3142 3144 3146 3148 3149 3150 3152 3153 3151 3153 3153 3152 3154 3156 3155 3155 3155 3157 3161 3162 3161 3162 3163 3164 3165 3166 3167 3167 3168 3168 3169 3171 3173 3174 3176
3153 3154 3151 3150 3152 3152 3151 3152 3153 3153 3152 3151 3151 3151 3151 3151 3152 3151 3150 3150 3150 3149 3149 3149 3148 3147 3147 3146 3146 3146 3145 3145 3146 3147 3147 3147 3148 3148 3148 3148 3148 3149 3149 3148 3148 3147 3147 3147 3145 3143 3141 3140 3140 3141 3143 3144 3146 3147 3147 3150 3151 3150 3151 3152 3151 3152 3153 3153 3155 3155 3154 3159 3162 3161 3161 3162 3163 3164 3164 3165 3166 3167 3168 3169 3171 3173 3174 3175
3153 3155 3152 3149 3151 3151 3151 3151 3151 3151 3151 3151 3152 3152 3151 3151 3151 3151 3151 3150 3149 3150 3149 3149 3148 3147 3147 3147 3147 3146 3146 3145 3145 3146 3147 3147 3147 3148 3148 3148 3148 3149 3149 3149 3148 3148 3147 3147 3145 3143 3142 3141 3139 3138 3140 3143 3144 3145 3145 3147 3150 3150 3151 3152 3152 3152 3151 3151 3155 3155 3154 3158 3161 3159 3160 3161 3162 3163 3163 3164 3165 3166 3168 3169 3171 3172 3173 3175
3152 3153 3152 3150 3149 3150 3150 3150 3150 3149 3150 3151 3152 3151 3151 3150 3150 3149 3150 3149 3149 3149 3149 3148 3148 3148 3147 3147 3147 3146 3146 3146 3145 3146 3146 3147 3147 3147 3148 3148 3148 3149 3148 3148 3148 3148 3148 3147 3146 3143 3141 3141 3139 3137 3138 3141 3143 3144 3144 3145 3147 3148 3149 3150 3150 3151 3150 3149 3151 3152 3153 3158 3160 3159 3159 3160 3160 3162 3162 3163 3165 3166 3168 3169 3170 3172 3173 3175
3150 3151 3151 3151 3150 3150 3150 3150 3149 3149 3150 3150 3151 3150 3150 3150 3149 3149 3149 3149 3149 3148 3148 3148 3148 3148 3147 3147 3147 3146 3146 3146 3146 3146 3146 3146 3147 3147 3148 3148 3148 3148 3147 3146 3146 3147 3147 3147 3146 3144 3141 3141 3140 3140 3140 3141 3141 3142 3143 3143 3145 3146 3147 3148 3148 3147 3148 3149 3150 3151 3154 3157 3158 3159 3160 3159 3159 3160 3161 3162 3164 3165 3167 3169 3171 3172 3173 3174
3148 3149 3150 3150 3149 3150 3150 3150 3150 3149 3149 3149 3149 3149 3149 3150 3149 3148 3148 3148 3148 3148 3148 3148 3148 3148 3147 3147 3147 3146 3146 3146 3146 3146 3146 3146 3146 3147 3147 3147 3148 3147 3146 3146 3147 3147 3147 3146 3145 3144 3142 3141 3142 3142 3142 3141 3140 3141 3142 3142 3143 3145 3147 3149 3148 3147 3148 3149 3150 3152 3154 3155 3157 3159 3160 3159 3159 3159 3159 3161 3163 3163 3166 3168 3171 3173 3174 3175
3147 3148 3148 3147 3147 3149 3149 3148 3149 3149 3149 3148 3148 3148 3149 3149 3149 3149 3148 3148 3148 3147 3147 3147 3147 3148 3147 3147 3147 3146 3146 3146 3146 3145 3145 3146 3146 3146 3146 3147 3147 3146 3146 3146 3147 3147 3146 3145 3144 3143 3142 3141 3141 3142 3142 3141 3139 3139 3140 3141 3143 3145 3148 3149 3149 3150 3151 3151 3151 3152 3153 3155 3156 3158 3159 3159 3159 3158 3158 3160 3162 3162 3165 3168 3170 3172 3173 3174
3146 3147 3146 3145 3146 3147 3147 3146 3147 3148 3148 3148 3147 3147 3148 3148 3148 3148 3148 3148 3148 3148 3147 3147 3147 3147 3147 3147 3147 3147 3146 3146 3145 3145 3145 3146 3146 3146 3146 3146 3146 3146 3146 3147 3147 3146 3146 3145 3144 3143 3141 3140 3140 3141 3141 3140 3140 3140 3141 3142 3143 3145 3147 3148 3149 3150 3150 3152 3153 3154 3154 3155 3156 3156 3157 3159 3159 3158 3158 3159 3161 3162 3164 3167 3170 3171 3173 3174
3142 3143 3143 3143 3144 3146 3146 3146 3146 3147 3147 3146 3147 3147 3147 3148 3147 3147 3147 3147 3147 3147 3147 3147 3147 3147 3147 3147 3147 3146 3146 3146 3146 3146 3146 3146 3146 3146 3145 3145 3146 3146 3146 3146 3146 3145 3145 3144 3143 3143 3142 3140 3139 3140 3140 3140 3141 3143 3144 3144 3144 3145 3146 3147 3149 3149 3150 3152 3154 3154 3155 3156 3156 3156 3157 3158 3158 3157 3158 3159 3160 3161 3164 3166 3169 3171 3172 3172
3139 3140 3140 3141 3142 3144 3145 3145 3146 3146 3146 3145 3146 3146 3146 3147 3147 3146 3147 3146 3146 3147 3146 3146 3146 3146 3146 3146 3146 3146 3146 3146 3146 3146 3146 3146 3146 3146 3146 3145 3145 3146 3146 3146 3146 3145 3145 3145 3144 3143 3143 3140 3138 3139 3140 3140 3142 3144 3145 3146 3145 3145 3146 3147 3149 3149 3150 3152 3153 3154 3155 3156 3156 3156 3157 3157 3157 3157 3157 3159 3160 3161 3163 3165 3167 3168 3169 3170
3136 3138 3138 3140 3141 3142 3143 3144 3145 3145 3144 3143 3144 3144 3145 3146 3145 3146 3146 3145 3145 3145 3145 3145 3145 3145 3146 3146 3145 3145 3145 3145 3146 3146 3146 3146 3146 3146 3146 3145 3145 3145 3145 3145 3145 3145 3145 3145 3144 3144 3144 3141 3138 3139 3140 3140 3142 3144 3146 3146 3145 3144 3146 3148 3149 3150 3150 3151 3152 3153 3154 3155 3156 3156 3156 3157 3158 3158 3159 3160 3161 3162 3163 3164 3165 3165 3167 3171